• Em Portugal
  • Lista de países
  • Para 7 dias
  • Temperatura da água
  • Mapas de satélite
  • Mapa do tempo
  • Widgets de tempo
  • user-avatar
    Iniciar Sessão

    Previsão horária em Fedoseevskiy

    Hoje, 22 Maio, Terça-feira

    Tempo Temperatura Precipitação Vento Pressão Humidade
    00:00 +12°C° 0,1 mm 4 m/s 751 mmHg 85%
    01:00 +12°C° 0,1 mm 4 m/s 751 mmHg 87%
    02:00 +11°C° 0,1 mm 4 m/s 751 mmHg 88%
    03:00 +11°C° 0,4 mm 4 m/s 751 mmHg 89%
    04:00 +11°C° 0,4 mm 4 m/s 751 mmHg 90%
    05:00 +11°C° 0,4 mm 4 m/s 751 mmHg 91%
    06:00 +11°C° 0,3 mm 4 m/s 751 mmHg 91%
    07:00 +12°C° 0,3 mm 4 m/s 751 mmHg 91%
    08:00 +12°C° 0,3 mm 4 m/s 751 mmHg 91%
    09:00 +12°C° 0,1 mm 4 m/s 751 mmHg 92%
    10:00 +13°C° 0,1 mm 4 m/s 751 mmHg 92%
    11:00 +13°C° 0,1 mm 4 m/s 751 mmHg 92%
    12:00 +15°C° 0 mm 4 m/s 751 mmHg 90%
    13:00 +17°C° 0 mm 4 m/s 751 mmHg 87%
    14:00 +19°C° 0 mm 4 m/s 751 mmHg 84%
    15:00 +19°C° 0,2 mm 3 m/s 751 mmHg 83%
    16:00 +19°C° 0,2 mm 3 m/s 751 mmHg 83%
    17:00 +20°C° 0,2 mm 3 m/s 751 mmHg 82%
    18:00 +19°C° 0,1 mm 2 m/s 751 mmHg 86%
    19:00 +17°C° 0,1 mm 2 m/s 751 mmHg 90%
    20:00 +16°C° 0,1 mm 2 m/s 751 mmHg 93%
    21:00 +15°C° 0 mm 2 m/s 751 mmHg 94%
    22:00 +15°C° 0 mm 2 m/s 751 mmHg 95%
    23:00 +14°C° 0 mm 2 m/s 751 mmHg 96%

    Amanhã, 23 Maio, Quarta-feira

    Tempo Temperatura Precipitação Vento Pressão Humidade
    00:00 +14°C° 0 mm 1 m/s 751 mmHg 96%
    01:00 +14°C° 0 mm 1 m/s 751 mmHg 96%
    02:00 +13°C° 0 mm 1 m/s 751 mmHg 96%
    03:00 +14°C° 0 mm 1 m/s 751 mmHg 96%
    04:00 +14°C° 0 mm 1 m/s 751 mmHg 96%
    05:00 +13°C° 0 mm 0 m/s 752 mmHg 96%
    06:00 +15°C° 0 mm 0 m/s 752 mmHg 90%
    07:00 +19°C° 0 mm 1 m/s 752 mmHg 85%
    08:00 +20°C° 0 mm 1 m/s 752 mmHg 79%
    09:00 +22°C° 0 mm 1 m/s 751 mmHg 73%
    10:00 +23°C° 0 mm 1 m/s 751 mmHg 66%
    11:00 +24°C° 0 mm 1 m/s 751 mmHg 59%
    12:00 +24°C° 0 mm 1 m/s 751 mmHg 56%
    13:00 +25°C° 0 mm 1 m/s 750 mmHg 54%
    14:00 +25°C° 0 mm 1 m/s 750 mmHg 51%
    15:00 +25°C° 0 mm 1 m/s 750 mmHg 53%
    16:00 +25°C° 0 mm 1 m/s 749 mmHg 55%
    17:00 +25°C° 0 mm 1 m/s 749 mmHg 58%
    18:00 +23°C° 0 mm 1 m/s 749 mmHg 63%
    19:00 +21°C° 0 mm 1 m/s 749 mmHg 69%
    20:00 +18°C° 0 mm 1 m/s 749 mmHg 75%
    21:00 +18°C° 0 mm 1 m/s 749 mmHg 77%
    22:00 +16°C° 0 mm 1 m/s 749 mmHg 79%
    23:00 +16°C° 0 mm 1 m/s 749 mmHg 80%

    Depois de amanhã, 24 Maio, Quinta-feira

    Tempo Temperatura Precipitação Vento Pressão Humidade
    00:00 +15°C° 0 mm 1 m/s 749 mmHg 83%
    01:00 +15°C° 0 mm 1 m/s 748 mmHg 85%
    02:00 +14°C° 0 mm 1 m/s 748 mmHg 88%
    03:00 +15°C° 0 mm 1 m/s 748 mmHg 88%
    04:00 +15°C° 0 mm 1 m/s 748 mmHg 88%
    05:00 +15°C° 0 mm 1 m/s 748 mmHg 88%
    06:00 +17°C° 0 mm 2 m/s 748 mmHg 83%
    07:00 +19°C° 0 mm 2 m/s 748 mmHg 79%
    08:00 +20°C° 0 mm 2 m/s 748 mmHg 74%
    09:00 +21°C° 0 mm 3 m/s 748 mmHg 69%
    10:00 +22°C° 0 mm 3 m/s 748 mmHg 65%
    11:00 +24°C° 0 mm 3 m/s 747 mmHg 61%
    12:00 +23°C° 0 mm 4 m/s 747 mmHg 59%
    13:00 +25°C° 0 mm 4 m/s 747 mmHg 58%
    14:00 +25°C° 0 mm 4 m/s 747 mmHg 57%
    15:00 +23°C° 0 mm 4 m/s 747 mmHg 60%
    16:00 +23°C° 0 mm 4 m/s 747 mmHg 64%
    17:00 +22°C° 0 mm 4 m/s 747 mmHg 67%
    18:00 +21°C° 0 mm 4 m/s 747 mmHg 71%
    19:00 +19°C° 0 mm 4 m/s 747 mmHg 75%
    20:00 +17°C° 0 mm 4 m/s 747 mmHg 79%
    21:00 +15°C° 0 mm 5 m/s 748 mmHg 81%
    22:00 +15°C° 0 mm 5 m/s 748 mmHg 84%
    23:00 +14°C° 0 mm 6 m/s 749 mmHg 87%

    25 Maio, Sexta-feira

    Tempo Temperatura Precipitação Vento Pressão Humidade
    00:00 +14°C° 0 mm 6 m/s 749 mmHg 85%
    01:00 +13°C° 0 mm 6 m/s 749 mmHg 83%
    02:00 +13°C° 0 mm 6 m/s 749 mmHg 81%
    03:00 +11°C° 0 mm 6 m/s 750 mmHg 80%
    04:00 +11°C° 0 mm 6 m/s 750 mmHg 80%
    05:00 +10°C° 0 mm 6 m/s 751 mmHg 79%
    06:00 +11°C° 0 mm 7 m/s 751 mmHg 73%
    07:00 +11°C° 0 mm 7 m/s 752 mmHg 68%
    08:00 +12°C° 0 mm 7 m/s 752 mmHg 62%
    09:00 +14°C° 0 mm 7 m/s 752 mmHg 59%
    10:00 +14°C° 0 mm 7 m/s 752 mmHg 56%
    11:00 +15°C° 0 mm 7 m/s 753 mmHg 53%
    12:00 +15°C° 0 mm 7 m/s 753 mmHg 53%
    13:00 +15°C° 0 mm 7 m/s 753 mmHg 52%
    14:00 +16°C° 0 mm 7 m/s 753 mmHg 52%
    15:00 +15°C° 0 mm 7 m/s 753 mmHg 55%
    16:00 +15°C° 0 mm 6 m/s 754 mmHg 57%
    17:00 +14°C° 0 mm 6 m/s 754 mmHg 59%
    18:00 +13°C° 0 mm 5 m/s 754 mmHg 62%
    19:00 +10°C° 0 mm 5 m/s 755 mmHg 65%
    20:00 +10°C° 0 mm 4 m/s 755 mmHg 68%
    21:00 +8°C° 0 mm 4 m/s 756 mmHg 69%
    22:00 +8°C° 0 mm 4 m/s 756 mmHg 70%
    23:00 +8°C° 0 mm 3 m/s 757 mmHg 70%

    26 Maio, Sábado

    Tempo Temperatura Precipitação Vento Pressão Humidade
    00:00 +7°C° 0 mm 3 m/s 757 mmHg 71%
    01:00 +7°C° 0 mm 3 m/s 757 mmHg 73%
    02:00 +5°C° 0 mm 3 m/s 758 mmHg 74%
    03:00 +5°C° 0 mm 3 m/s 758 mmHg 74%
    04:00 +7°C° 0 mm 2 m/s 758 mmHg 75%
    05:00 +7°C° 0 mm 2 m/s 759 mmHg 76%
    06:00 +9°C° 0 mm 3 m/s 759 mmHg 69%
    07:00 +11°C° 0 mm 3 m/s 759 mmHg 63%
    08:00 +13°C° 0 mm 3 m/s 760 mmHg 57%
    09:00 +14°C° 0 mm 3 m/s 760 mmHg 55%
    10:00 +16°C° 0 mm 3 m/s 759 mmHg 52%
    11:00 +18°C° 0 mm 3 m/s 759 mmHg 50%
    12:00 +18°C° 0 mm 3 m/s 759 mmHg 51%
    13:00 +19°C° 0 mm 3 m/s 759 mmHg 51%
    14:00 +19°C° 0 mm 3 m/s 759 mmHg 51%
    15:00 +19°C° 0 mm 3 m/s 758 mmHg 54%
    16:00 +19°C° 0 mm 2 m/s 758 mmHg 56%
    17:00 +19°C° 0 mm 2 m/s 758 mmHg 58%
    18:00 +17°C° 0 mm 2 m/s 758 mmHg 64%
    19:00 +16°C° 0 mm 1 m/s 758 mmHg 70%
    20:00 +14°C° 0 mm 1 m/s 758 mmHg 75%
    21:00 +13°C° 0 mm 1 m/s 758 mmHg 77%
    22:00 +12°C° 0 mm 1 m/s 758 mmHg 79%
    23:00 +12°C° 0 mm 1 m/s 758 mmHg 81%

    27 Maio, Domingo

    Tempo Temperatura Precipitação Vento Pressão Humidade
    00:00 +11°C° 0 mm 1 m/s 758 mmHg 82%
    01:00 +11°C° 0 mm 1 m/s 758 mmHg 84%
    02:00 +11°C° 0 mm 1 m/s 758 mmHg 85%
    03:00 +10°C° 0 mm 2 m/s 758 mmHg 85%
    04:00 +10°C° 0 mm 2 m/s 758 mmHg 85%
    05:00 +12°C° 0 mm 2 m/s 758 mmHg 84%
    06:00 +14°C° 0 mm 2 m/s 758 mmHg 78%
    07:00 +16°C° 0 mm 2 m/s 758 mmHg 72%
    08:00 +18°C° 0 mm 2 m/s 758 mmHg 66%
    09:00 +19°C° 0 mm 2 m/s 757 mmHg 61%
    10:00 +20°C° 0 mm 3 m/s 757 mmHg 57%
    11:00 +22°C° 0 mm 3 m/s 757 mmHg 53%
    12:00 +22°C° 0 mm 3 m/s 756 mmHg 52%
    13:00 +22°C° 0 mm 3 m/s 756 mmHg 52%
    14:00 +22°C° 0 mm 3 m/s 755 mmHg 52%
    15:00 +22°C° 0 mm 3 m/s 755 mmHg 55%
    16:00 +22°C° 0 mm 3 m/s 755 mmHg 59%
    17:00 +22°C° 0 mm 3 m/s 754 mmHg 63%
    18:00 +20°C° 0 mm 3 m/s 754 mmHg 68%
    19:00 +18°C° 0 mm 3 m/s 754 mmHg 73%
    20:00 +16°C° 0 mm 3 m/s 754 mmHg 78%
    21:00 +14°C° 0 mm 3 m/s 754 mmHg 80%
    22:00 +14°C° 0 mm 3 m/s 754 mmHg 82%
    23:00 +13°C° 0 mm 3 m/s 754 mmHg 84%
    Mostrar mais